FENGYUN 1C DEB

Satellite information

Favourite Embed

Satellite Type and Status

DEBRISIN ORBIT

Key statistics

Satellite FENGYUN 1C DEB at a glance.

Uptime

9495

Days in orbit

Revolutions

≈ 14.1

Per day

Orbit

SSO

Sun Synchronous Orbit

Inclination

98.1

Latest

Satellite identification and parameters

Extended collection of information and parameters for FENGYUN 1C DEB.

Object identification

Identified? True

Debris? True

Object name: FENGYUN 1C DEB

International designator: 1999-025ACB

Object number (NORAD): 30364

Object ID (CCSDS): 30364

Country: PEOPLES REPUBLIC OF CHINA (PRC)

Current information (Y/N): Y

RCS size: SMALL

Orbital parameters

Period: 101.877 minutes

Inclination: 98.1322 deg

SMA: 7225.652 km

Apoapsis: 1094.545 km

Periapsis: 600.489 km

RAAN: 59.7645 deg

Eccentricy: 0.0341877

Argument of periapsis: 247.3198 deg

Mean anomaly: 270.6649 deg

Mean motion: 14.1347197 rev/day

Mean motion (dot): 0.00006617 rev/day2

B* drag term: 0.0020211 1/REarth

Two-line elements (TLE)

Creation date: May 5, 2025, 6:56 a.m.

Reference frame: TEME

Reference center: EARTH

Epoch: May 4, 2025, 6:47 a.m. UTC

TLE line 0: 0 FENGYUN 1C DEB

TLE line 1: 1 30364U 99025ACB 25124.28304207 .00006617 00000-0 20211-2 0 9999

TLE line 2: 2 30364 98.1322 59.7645 0341877 247.3198 270.6649 14.13471970925055

Live tracking on map

Real-time ground track for satellite FENGYUN 1C DEB.

In-orbit conjunctions

A list of the most updated potential collisions computed for object FENGYUN 1C DEB.

Target Orbit TCA Probability of collision Miss distance Type
METEOR 2-18 LEO 2025-02-01 09:18:52 0.0001171 632.0 (m) PAYLOAD
COSMOS 2251 DEB LEO 2024-11-14 14:43:24 0.0001384429 899.0 (m) DEBRIS

Associated space launch

Chinese polar orbiting meteorological satellite

FENGYUN 1C DEB was lifted into orbit during the mission ‘Long March 4B | Feng Yun 1C’, on board a Long March 4B space rocket.

The launch took place on May 10, 1999, 1:33 a.m. from Launch Complex 7.

For more information about the launch, click the button.

Launch to space Long March 4B | Feng Yun 1C
Long March 4B | Feng Yun 1C

Agency: N/A

Status: Launch Successful

Launch date: May 10, 1999, 1:33 a.m. UTC

Rocket: Long March 4B

Launch pad: Launch Complex 7

Location: Taiyuan Satellite Launch Center, People's Republic of China

...

Latest news about this satellite

There are no fresh news available about this satellite. Check back as we update our databases every day.


Newsletter sign-up

Weekly statistics, charts and insights to help you stay on top of the space industry.